Home > Time Zones > World Clock > Weather > U.S.A. > Hilo > Past weeks

Flag for U.S.A. Weather past 2 weeks in Hilo, Hawaii, U.S.A.

Now
78 °F

Partly cloudy.


Feels Like: 81 °F
Forecast: 72 / 86 °F
Wind: No wind

Location: Hilo International Airport

Current Time: Aug 28, 2015 at 10:03:11 PM

Latest Report: Aug 28, 2015 at 8:53 PM


Visibility: 10 mi

Pressure: 29.92 "Hg

Humidity: 87%

Dew point: 74 °F

Location of HiloLocation

Historic Weather in Hilo — Graph

°F

Hilo temperature yesterday

Maximum temperature yesterday: 88 °F (at 11:53 AM)
Minimum temperature yesterday: 72 °F (at 5:53 AM)
Average temperature yesterday: 80 °F

Past Weeks' High & Low Weather Summary

 TemperatureHumidityPressure
High90 °F (Aug 28, 11:53 AM)100% (Aug 14, 1:11 AM)30.00 "Hg (Aug 14, 1:11 AM)
Low71 °F (Aug 16, 4:53 AM)52% (Aug 28, 11:53 AM)29.80 "Hg (Aug 18, 4:53 PM)
Average78 °F86%29.91 "Hg
* Reported Aug 13 8:00 PM — Aug 28 8:53 PM, Hilo, Weather by CustomWeather, © 2015

Note: Actual official high and low records may vary slightly from our data, if they occured in-between our weather recording intervals... More about our weather records

Advertising

Hilo weather history for previous 24 hours

 ConditionsComfort  
Time TempWeatherWind HumidityBarometerVisibility
8:53 PM
Fri, Aug 28
78 °FPartly cloudy.No wind87%29.92 "Hg10 mi
7:53 PM79 °FPartly cloudy.No wind82%29.90 "Hg10 mi
6:53 PM80 °FClear.5 mph79%29.88 "Hg10 mi
5:53 PM84 °FSunny.6 mph67%29.85 "Hg10 mi
4:53 PM86 °FSunny.9 mph65%29.86 "Hg10 mi
3:53 PM86 °FPassing clouds.5 mph63%29.86 "Hg10 mi
2:53 PM88 °FPassing clouds.9 mph61%29.87 "Hg10 mi
1:53 PM88 °FSunny.9 mph61%29.87 "Hg10 mi
12:53 PM87 °FPassing clouds.9 mph61%29.89 "Hg10 mi
11:53 AM90 °FSunny.9 mph52%29.91 "Hg10 mi
10:53 AM87 °FPassing clouds.7 mph61%29.92 "Hg10 mi
9:53 AM86 °FPassing clouds.6 mph67%29.93 "Hg10 mi
8:53 AM84 °FPassing clouds.6 mph65%29.92 "Hg10 mi
7:53 AM81 °FSunny.No wind69%29.91 "Hg10 mi
6:53 AM75 °FScattered clouds.3 mph76%29.89 "Hg10 mi
5:53 AM72 °FPassing clouds.6 mph81%29.87 "Hg10 mi
4:53 AM73 °FPassing clouds.6 mph81%29.86 "Hg10 mi
3:53 AM73 °FPassing clouds.6 mph81%29.86 "Hg10 mi
2:53 AM73 °FPassing clouds.7 mph84%29.87 "Hg10 mi
1:53 AM75 °FPassing clouds.6 mph82%29.88 "Hg10 mi
12:53 AM75 °FPassing clouds.6 mph88%29.90 "Hg10 mi
11:53 PM
Thu, Aug 27
75 °FClear.6 mph90%29.92 "Hg10 mi
10:53 PM75 °FPassing clouds.No wind90%29.93 "Hg10 mi
Weather by CustomWeather, © 2015

See weather overviewHow to use our weather pages